SL-16 DEB, 20629

Orbit data source: Space-Track

SL-16 DEB, 20629 is space debris in LEO originally from a launch on Tue, 22 May 1990 UTC launched from the Tyuratam Missile And Space Complex (TTMTR). Debris objects in space refer to the collection of defunct objects orbiting the Earth. Examples of debris include non-operational satellites, rocket bodies, and fragments generated from explosions, collisions, or faulty payload assembly.

Loading next visibility...
Identifier
20629, 1990-046F
Orbit
LEO
Country
Flag of CISCIS
Related business
Manufacturer
Yuzhnoe
Mission
Spacecraft
Bus & Motor
SEP MOTOR COVER, Unknown motor
Mass
~0 kg wet, ~1 kg dry
Launch date (UTC)
1990-05-22 (35 years ago)
Launch vehicle
Unknown
Launch site
Tyuratam Missile And Space Complex (TTMTR)
Object type
Payload
Rocket body
Debris
Shape & HBR
Unknown shape, 0.1 m
Radar Cross Section
Small (<0.1 m²)

Expand to show TLE details & history
Last TLE update: 15 hours ago

TLE from 15 hours ago
0 SL-16 DEB
1 20629U 90046F   25300.33091713  .00000304  00000-0  31996-3 0  9993
2 20629  71.0217 258.4506 0196964  35.4352  37.1412 13.74099175775795
Epoch: 2025-10-27T07:56Z
TLE epoch observation values (Epoch: 2025-10-27T07:56:31.240Z)
Latitude
65.45033°
Longitude
151.88347°
Altitude
881.096 km
Speed
7.476 km/s
True Right ascension
20h 27m 47s
True Declination
65° 19' 20"
Sunlit
Object was in daylight at epoch
Visualization orbit readout
Latitude
Unknown
Longitude
Unknown
Altitude
Unknown
Speed
Unknown
Apparent Right ascension
Unknown
Apparent Declination
Unknown
Sunlit
N/A
Visualization observer readout
Local Sidereal Time
18:18:45
Azimuth
Unknown
Elevation
Unknown
Doppler factor
Unknown
Orbital elements
Apogee altitude
1,127.838 km
Perigee altitude
837.868 km
Semi-major axis
7,360.99 km
Eccentricity
0.0197
Inclination
71.0217°
RAAN
258.4506°
Arg. of periapsis
35.4352°
True anomaly
38.53108°
Mean anomaly
37.1412°
Eccentric anomaly
37.8334°
Mean motion
3.43668 °/min
Orbital period
104.75 mins
BSTAR
0.00031996
Loading maneuver chart data...
Computing Atmospheric mass density...
Loading historical data...
Loading historical data...
Loading historical data...
Loading historical data...
Loading historical data...
Loading historical data...
Loading historical data...
Other satellites on launch #46 in the year 1990 (1990-05-22 UTC)

Documentation

Showing up to 5 results
|